Satellite: NO-44
Catalog number: 26931
Epoch time:      10154.70169753
Element set:     473
Inclination:      067.0515 deg
RA of node:       238.7184 deg
Eccentricity:    0.0005596
Arg of perigee:   263.1976 deg
Mean anomaly:     096.8482 deg
Mean motion:   14.29597610 rev/day
Decay rate:      -2.59e-06 rev/day^2
Epoch rev:           45282
Checksum:              337

Satellite: SO-50
Catalog number: 27607
Epoch time:      10153.66905002
Element set:    0189
Inclination:      064.5589 deg
RA of node:       040.6158 deg
Eccentricity:    0.0034525
Arg of perigee:   084.3839 deg
Mean anomaly:     276.1226 deg
Mean motion:   14.71544858 rev/day
Decay rate:       2.78e-06 rev/day^2
Epoch rev:           40024
Checksum:              308

Satellite: CO-55
Catalog number: 27844
Epoch time:      10153.58714392
Element set:    0859
Inclination:      098.7080 deg
RA of node:       162.7710 deg
Eccentricity:    0.0008929
Arg of perigee:   210.6256 deg
Mean anomaly:     149.4399 deg
Mean motion:   14.20710080 rev/day
Decay rate:        6.3e-07 rev/day^2
Epoch rev:           35901
Checksum:              312

Satellite: CO-57
Catalog number: 27848
Epoch time:      10154.53028371
Element set:     810
Inclination:      098.7135 deg
RA of node:       162.7922 deg
Eccentricity:    0.0008988
Arg of perigee:   211.5504 deg
Mean anomaly:     148.5125 deg
Mean motion:   14.20502447 rev/day
Decay rate:        5.8e-07 rev/day^2
Epoch rev:           35910
Checksum:              300

Satellite: AO-51
Catalog number: 28375
Epoch time:      10154.53629983
Element set:     691
Inclination:      098.0617 deg
RA of node:       148.8108 deg
Eccentricity:    0.0084067
Arg of perigee:   137.9661 deg
Mean anomaly:     222.8020 deg
Mean motion:   14.40686365 rev/day
Decay rate:        2.1e-07 rev/day^2
Epoch rev:           31154
Checksum:              309

Satellite: GENESAT1
Catalog number: 29655
Epoch time:      10154.28320024
Element set:      85
Inclination:      040.0169 deg
RA of node:       119.4531 deg
Eccentricity:    0.0009611
Arg of perigee:   227.3503 deg
Mean anomaly:     132.6489 deg
Mean motion:   15.91181412 rev/day
Decay rate:    1.20934e-03 rev/day^2
Epoch rev:           19777
Checksum:              278

Satellite: CP3
Catalog number: 31129
Epoch time:      10153.54009885
Element set:    0593
Inclination:      097.9387 deg
RA of node:       193.8935 deg
Eccentricity:    0.0100554
Arg of perigee:   279.2202 deg
Mean anomaly:     079.7637 deg
Mean motion:   14.52261145 rev/day
Decay rate:       2.20e-06 rev/day^2
Epoch rev:           16573
Checksum:              310

Satellite: CO-65
Catalog number: 32785
Epoch time:      10153.30737226
Element set:    0698
Inclination:      097.8964 deg
RA of node:       218.4389 deg
Eccentricity:    0.0014520
Arg of perigee:   337.9876 deg
Mean anomaly:     022.0679 deg
Mean motion:   14.81659829 rev/day
Decay rate:       3.60e-06 rev/day^2
Epoch rev:           11328
Checksum:              345

Satellite: KKS-1
Catalog number: 33493
Epoch time:      10154.74176076
Element set:     540
Inclination:      098.0846 deg
RA of node:       274.1196 deg
Eccentricity:    0.0019751
Arg of perigee:   180.6885 deg
Mean anomaly:     179.4316 deg
Mean motion:   14.80999299 rev/day
Decay rate:       6.29e-06 rev/day^2
Epoch rev:            7349
Checksum:              346

Satellite: SOHLA-1
Catalog number: 33496
Epoch time:      10153.86169324
Element set:    0120
Inclination:      098.0574 deg
RA of node:       263.1227 deg
Eccentricity:    0.0005587
Arg of perigee:   243.6419 deg
Mean anomaly:     116.4210 deg
Mean motion:   14.69495895 rev/day
Decay rate:        6.7e-07 rev/day^2
Epoch rev:           07277
Checksum:              310

/EX
SB KEPS @ AMSAT  $ORB10154.W
Orbital Elements  10154.WEATHER

HR AMSAT ORBITAL ELEMENTS FOR WEATHER SATELLITES
FROM WA5QGD FORT WORTH,TX June 3, 2010
Send Subscribe/unsubscribe to KEPS at http://www.amsat.org/mailman/listinfo/kep
BID: ORB10154.W
TO ALL RADIO AMATEURS BT

Satellite: NOAA-10
Catalog number: 16969
Epoch time:      10153.64302015
Element set:    0086
Inclination:      098.6564 deg
RA of node:       182.7468 deg
Eccentricity:    0.0011356
Arg of perigee:   252.9499 deg
Mean anomaly:     107.0420 deg
Mean motion:   14.27417503 rev/day
Decay rate:       -4.9e-07 rev/day^2
Epoch rev:           23350
Checksum:              293

Satellite: NOAA-11
Catalog number: 19531
Epoch time:      10153.74381152
Element set:    0097
Inclination:      098.7695 deg
RA of node:       243.0135 deg
Eccentricity:    0.0011404
Arg of perigee:   185.0224 deg
Mean anomaly:     175.0842 deg
Mean motion:   14.14926109 rev/day
Decay rate:      -1.43e-06 rev/day^2
Epoch rev:           11909
Checksum:              275

Satellite: NOAA-12
Catalog number: 21263
Epoch time:      10153.96339775
Element set:    0585
Inclination:      098.7638 deg
RA of node:       167.1260 deg
Eccentricity:    0.0011997
Arg of perigee:   203.6702 deg
Mean anomaly:     156.3924 deg
Mean motion:   14.25635431 rev/day
Decay rate:        1.8e-07 rev/day^2
Epoch rev:           99037
Checksum:              317

